Weather History for KLCI - March, 2015

Change the Weather History Date:

Saturday, March 7, 2015

  Actual Average (KCON) Record (KCON)
Temperature  
Mean Temperature 19 °F 30 °F  
Max Temperature 33 °F 41 °F 73 °F (1876)
Min Temperature 5 °F 19 °F -8 °F (2014)
Degree Days  
Heating Degree Days 46 35  
Month to date heating degree days 252  
Since 1 July heating degree days 5512  
Cooling Degree Days 0 0  
Month to date cooling degree days 0  
Year to date cooling degree days 0  
Moisture  
Dew Point 5 °F    
Average Humidity 47    
Maximum Humidity 72    
Minimum Humidity 35    
Precipitation  
Precipitation 0.00 in 0.10 in 1.50 in (2011)
Month to date precipitation 0.69  
Year to date precipitation 6.01  
Snow  
Snow 0.00 in 0.50 in 10.40 in (1967)
Month to date snowfall 3.1  
Since 1 July snowfall 50.6  
Snow Depth -    
Sea Level Pressure  
Sea Level Pressure 30.02 in    
Wind  
Wind Speed 5 mph (WSW)    
Max Wind Speed 16 mph    
Max Gust Speed 22 mph    
Visibility 10 miles    
Events      
T = Trace of Precipitation, MM = Missing Value Source: NWS Daily Summary

Daily Weather History Graph

Daily Weather History Graph

Search for Another Location

Airport or City:

Trip Planner

Search our weather history database for the weather conditions in past years. The results will help you decide how hot, cold, wet, or windy it might be!

Date:

Astronomy

Mar. 07, 2015 Rise Set
Actual Time 6:12 AM EST 5:41 PM EST
Civil Twilight 5:43 AM EST 6:10 PM EST
Nautical Twilight 5:10 AM EST 6:43 PM EST
Astronomical Twilight 4:37 AM EST 7:16 PM EST
Moon 7:45 PM EST (3/7) 6:54 AM EST (3/7)
Length of Visible Light 12h 26m
Length of Day
11h 29m
Waning Gibbous, 97% of the Moon is Illuminated
Mar 7
Waning Gibbous
Mar 13
Last Quarter
Mar 20
New
Mar 27
First Quarter
Apr 4
Full

Hourly Weather History & Observations

Time (EST) Temp. Windchill Dew Point Humidity Pressure Visibility Wind Dir Wind Speed Gust Speed Precip Events Conditions
12:15 AM 15.8 °F - -5.8 °F 38% 30.18 in - Calm Calm - N/A   Clear
12:35 AM 15.8 °F - -5.8 °F 38% 30.17 in - Calm Calm - N/A   Clear
12:55 AM 15.8 °F 6.1 °F -5.8 °F 38% 30.17 in - SW 6.9 mph - N/A   Clear
1:15 AM 17.6 °F 7.3 °F -4.0 °F 38% 30.17 in - SW 8.1 mph - N/A   Clear
1:35 AM 19.4 °F 10.4 °F -4.0 °F 36% 30.16 in - SSW 6.9 mph - N/A   Clear
1:55 AM 17.6 °F - -4.0 °F 38% 30.15 in - Calm Calm - N/A   Clear
2:15 AM 17.6 °F 12.3 °F -5.8 °F 35% 30.14 in - SW 3.5 mph - N/A   Clear
2:35 AM 17.6 °F 10.7 °F -4.0 °F 38% 30.13 in - SW 4.6 mph - N/A   Clear
2:55 AM 17.6 °F 12.3 °F -5.8 °F 35% 30.12 in - WSW 3.5 mph - N/A   Clear
3:15 AM 14.0 °F - -5.8 °F 41% 30.12 in - Calm Calm - N/A   Clear
3:35 AM 12.2 °F - -5.8 °F 45% 30.12 in - Calm Calm - N/A   Clear
3:55 AM 10.4 °F - -4.0 °F 52% 30.12 in - Calm Calm - N/A   Clear
4:15 AM 8.6 °F - -4.0 °F 57% 30.12 in - Calm Calm - N/A   Clear
4:35 AM 8.6 °F - -5.8 °F 52% 30.12 in - Calm Calm - N/A   Clear
4:55 AM 6.8 °F -0.1 °F -4.0 °F 61% 30.11 in - WSW 3.5 mph - N/A   Clear
5:15 AM 6.8 °F -3.5 °F -4.0 °F 61% 30.11 in - WSW 5.8 mph - N/A   Clear
5:35 AM 6.8 °F -3.5 °F -0.4 °F 72% 30.11 in - WSW 5.8 mph - N/A   Clear
5:55 AM 6.8 °F -2.0 °F -4.0 °F 61% 30.11 in - West 4.6 mph - N/A   Clear
6:15 AM 6.8 °F - -5.8 °F 56% 30.10 in - Calm Calm - N/A   Clear
6:35 AM 5.0 °F -5.6 °F -2.2 °F 72% 30.10 in - SW 5.8 mph - N/A   Clear
6:55 AM 6.8 °F -4.8 °F -0.4 °F 72% 30.10 in - SW 6.9 mph - N/A   Clear
7:15 AM 6.8 °F -5.9 °F -4.0 °F 61% 30.10 in - WSW 8.1 mph - N/A   Clear
7:35 AM 12.2 °F 6.1 °F 1.4 °F 62% 30.09 in - West 3.5 mph - N/A   Clear
7:55 AM 10.4 °F -0.4 °F -2.2 °F 57% 30.09 in - WSW 6.9 mph - N/A   Clear
8:15 AM 15.8 °F 6.1 °F 1.4 °F 53% 30.08 in - WSW 6.9 mph - N/A   Clear
8:35 AM 17.6 °F 6.4 °F 1.4 °F 49% 30.08 in - WSW 9.2 mph - N/A   Partly Cloudy
8:55 AM 19.4 °F 10.4 °F 1.4 °F 46% 30.07 in - SW 6.9 mph - N/A   Mostly Cloudy
9:15 AM 21.2 °F 9.5 °F 1.4 °F 42% 30.06 in - SW 11.5 mph - N/A   Mostly Cloudy
9:35 AM 21.2 °F 9.5 °F 1.4 °F 42% 30.05 in - SW 11.5 mph - N/A   Scattered Clouds
9:55 AM 23.0 °F 11.1 °F 1.4 °F 39% 30.04 in - SSW 12.7 mph - N/A   Partly Cloudy
10:15 AM 23.0 °F 12.4 °F 1.4 °F 39% 30.04 in - SW 10.4 mph - N/A   Clear
10:35 AM 24.8 °F 16.1 °F 3.2 °F 40% 30.03 in - SW 8.1 mph - N/A   Clear
10:55 AM 26.6 °F 16.2 °F 3.2 °F 37% 30.02 in - SW 11.5 mph - N/A   Clear
11:15 AM 26.6 °F 18.2 °F 5.0 °F 40% 30.01 in - SSW 8.1 mph - N/A   Clear
11:35 AM 28.4 °F 18.5 °F 6.8 °F 40% 30.01 in - SSW 11.5 mph - N/A   Clear
11:55 AM 28.4 °F 18.5 °F 6.8 °F 40% 30.01 in - SW 11.5 mph - N/A   Clear
12:15 PM 30.2 °F 21.3 °F 8.6 °F 40% 29.99 in - SW 10.4 mph - N/A   Clear
12:35 PM 32.0 °F 24.8 °F 10.4 °F 41% 29.98 in 10.0 mi West 8.1 mph 16.1 mph N/A   Scattered Clouds
12:55 PM 32.0 °F 23.0 °F 10.4 °F 41% 29.97 in - West 11.5 mph - N/A   Partly Cloudy
1:15 PM 33.8 °F 23.5 °F 10.4 °F 38% 29.95 in - West 16.1 mph 19.6 mph N/A   Partly Cloudy
1:35 PM 33.8 °F 25.3 °F 10.4 °F 38% 29.94 in - West 11.5 mph 21.9 mph N/A   Partly Cloudy
1:55 PM 33.8 °F 25.8 °F 12.2 °F 41% 29.93 in 10.0 mi WSW 10.4 mph 16.1 mph N/A   Clear
2:15 PM 33.8 °F 28.6 °F 12.2 °F 41% 29.93 in - West 5.8 mph 16.1 mph N/A   Clear
2:35 PM 33.8 °F 27.7 °F 12.2 °F 41% 29.93 in 10.0 mi SW 6.9 mph - N/A   Mostly Cloudy
2:55 PM 32.0 °F 23.6 °F 12.2 °F 44% 29.93 in 10.0 mi WSW 10.4 mph - N/A   Overcast
3:15 PM 33.8 °F 26.4 °F 12.2 °F 41% 29.92 in - WSW 9.2 mph - N/A   Overcast
3:35 PM 33.8 °F 25.3 °F 12.2 °F 41% 29.92 in - SW 11.5 mph - N/A   Mostly Cloudy
3:55 PM 33.8 °F 24.8 °F 12.2 °F 41% 29.91 in - WSW 12.7 mph 16.1 mph N/A   Mostly Cloudy
4:15 PM 32.0 °F 22.1 °F 12.2 °F 44% 29.90 in - SW 13.8 mph - N/A   Scattered Clouds
4:35 PM 32.0 °F 22.5 °F 12.2 °F 44% 29.90 in - WSW 12.7 mph - N/A   Partly Cloudy
4:55 PM 32.0 °F 24.8 °F 12.2 °F 44% 29.91 in - West 8.1 mph - N/A   Clear
5:15 PM 32.0 °F 25.6 °F 10.4 °F 41% 29.91 in - West 6.9 mph - N/A   Clear
5:35 PM 30.2 °F 26.7 °F 10.4 °F 44% 29.91 in - West 3.5 mph - N/A   Scattered Clouds
5:55 PM 30.2 °F 23.4 °F 10.4 °F 44% 29.92 in 10.0 mi West 6.9 mph - N/A   Mostly Cloudy
6:15 PM 30.2 °F 21.3 °F 10.4 °F 44% 29.92 in - West 10.4 mph - N/A   Mostly Cloudy
6:35 PM 30.2 °F 21.9 °F 8.6 °F 40% 29.92 in 10.0 mi West 9.2 mph - N/A   Mostly Cloudy
6:55 PM 30.2 °F 24.3 °F 10.4 °F 44% 29.93 in 10.0 mi West 5.8 mph - N/A   Mostly Cloudy
7:15 PM 30.2 °F 24.3 °F 10.4 °F 44% 29.93 in 10.0 mi West 5.8 mph - N/A   Overcast
7:35 PM 28.4 °F 24.6 °F 10.4 °F 47% 29.94 in 10.0 mi WSW 3.5 mph - N/A   Overcast
7:55 PM 28.4 °F 21.2 °F 10.4 °F 47% 29.93 in - WSW 6.9 mph - N/A   Overcast
8:15 PM 28.4 °F 22.2 °F 10.4 °F 47% 29.93 in 10.0 mi WSW 5.8 mph - N/A   Mostly Cloudy
8:35 PM 28.4 °F 21.2 °F 10.4 °F 47% 29.94 in 10.0 mi WSW 6.9 mph - N/A   Overcast
8:55 PM 28.4 °F 23.3 °F 10.4 °F 47% 29.94 in 10.0 mi WSW 4.6 mph - N/A   Overcast
9:15 PM 28.4 °F 24.6 °F 10.4 °F 47% 29.94 in 10.0 mi WSW 3.5 mph - N/A   Overcast
9:35 PM 26.6 °F 19.1 °F 10.4 °F 51% 29.94 in 10.0 mi WSW 6.9 mph - N/A   Mostly Cloudy
9:55 PM 26.6 °F 18.2 °F 10.4 °F 51% 29.95 in 10.0 mi WSW 8.1 mph - N/A   Clear
10:15 PM 26.6 °F 20.0 °F 10.4 °F 51% 29.95 in - WSW 5.8 mph - N/A   Clear
10:35 PM 26.6 °F 20.0 °F 10.4 °F 51% 29.95 in 10.0 mi WSW 5.8 mph - N/A   Clear
10:55 PM 24.8 °F - 10.4 °F 54% 29.95 in 10.0 mi Calm Calm - N/A   Clear
11:15 PM 23.0 °F - 10.4 °F 59% 29.95 in 10.0 mi Calm Calm - N/A   Clear
11:35 PM 21.2 °F 16.4 °F 10.4 °F 63% 29.96 in - SW 3.5 mph - N/A   Clear
11:55 PM 21.2 °F - 10.4 °F 63% 29.96 in - Calm Calm - N/A   Clear